OpenBCM V1.13 (Linux)

Packet Radio Mailbox

DB0FHN

[JN59NK Nuernberg]

 Login: GUEST





  
UA9CIR > KEPS     28.02.03 10:08l 207 Lines 5449 Bytes #999 (0) @ AMSAT
BID : ORB03058.W
Read: DB0FHN GUEST
Subj: Orbital Elements  03058.WEATHER
Path: DB0FHN<DB0RGB<DB0MRW<OK0PPL<OK0PAD<OK0PCC<OK0PRG<OK0PAB<OK0PBR<UA6ADV<
      RN6AM<RU9CYA<UA9CIR
Sent: 030228/0615Z @:UA9CIR.SVR.RUS.EU #:64957 [Ekaterinburg] $:ORB03058.W
From: UA9CIR@UA9CIR.SVR.RUS.EU
To  : KEPS@AMSAT


HR AMSAT ORBITAL ELEMENTS FOR WEATHER SATELLITES
FROM WA5QGD FORT WORTH,TX February 27, 2003
SEND SUBSCRIBE/UNSUBSCRIBE TO majordomo@amsat.org ONLY
BID: ORB03058.W
TO ALL RADIO AMATEURS BT

Satellite: NOAA-10
Catalog number: 16969
Epoch time:      03058.94358287
Element set:     678
Inclination:       98.7307 deg
RA of node:        53.0344 deg
Eccentricity:    0.0013460
Arg of perigee:    61.7698 deg
Mean anomaly:     298.4840 deg
Mean motion:   14.27067366 rev/day
Decay rate:       1.03e-06 rev/day^2
Epoch rev:           85524
Checksum:              334

Satellite: NOAA-11
Catalog number: 19531
Epoch time:      03058.91933971
Element set:     516
Inclination:       98.8996 deg
RA of node:       140.2702 deg
Eccentricity:    0.0011769
Arg of perigee:   172.3185 deg
Mean anomaly:     187.8166 deg
Mean motion:   14.14541698 rev/day
Decay rate:       1.24e-06 rev/day^2
Epoch rev:           74412
Checksum:              322

Satellite: NOAA-12
Catalog number: 21263
Epoch time:      03058.89194490
Element set:     985
Inclination:       98.6274 deg
RA of node:        48.3622 deg
Eccentricity:    0.0013125
Arg of perigee:   359.1420 deg
Mean anomaly:       0.9735 deg
Mean motion:   14.25086712 rev/day
Decay rate:       1.89e-06 rev/day^2
Epoch rev:           61254
Checksum:              302

Satellite: MET-3/5
Catalog number: 21655
Epoch time:      03057.95507926
Element set:    0541
Inclination:      082.5558 deg
RA of node:       032.9341 deg
Eccentricity:    0.0012895
Arg of perigee:   173.3763 deg
Mean anomaly:     186.7532 deg
Mean motion:   13.16980630 rev/day
Decay rate:        5.1e-07 rev/day^2
Epoch rev:           55458
Checksum:              318

Satellite: MET-2/21
Catalog number: 22782
Epoch time:      03057.85130393
Element set:     528
Inclination:       82.5487 deg
RA of node:       208.3237 deg
Eccentricity:    0.0021516
Arg of perigee:   325.4947 deg
Mean anomaly:      34.4826 deg
Mean motion:   13.83533070 rev/day
Decay rate:       1.32e-06 rev/day^2
Epoch rev:           47923
Checksum:              297

Satellite: OKEAN-4
Catalog number: 23317
Epoch time:      03057.95970834
Element set:    0188
Inclination:      082.5433 deg
RA of node:       321.1131 deg
Eccentricity:    0.0024668
Arg of perigee:   026.4273 deg
Mean anomaly:     333.8191 deg
Mean motion:   14.80931769 rev/day
Decay rate:       7.32e-06 rev/day^2
Epoch rev:           45134
Checksum:              299

Satellite: NOAA-14
Catalog number: 23455
Epoch time:      03058.88996830
Element set:     539
Inclination:       99.1863 deg
RA of node:        77.7028 deg
Eccentricity:    0.0009026
Arg of perigee:   199.5878 deg
Mean anomaly:     160.4948 deg
Mean motion:   14.13299623 rev/day
Decay rate:        5.3e-07 rev/day^2
Epoch rev:           42079
Checksum:              352

Satellite: SICH-1
Catalog number: 23657
Epoch time:      03057.96919383
Element set:    0053
Inclination:      082.5309 deg
RA of node:       101.8841 deg
Eccentricity:    0.0025273
Arg of perigee:   009.0975 deg
Mean anomaly:     351.0692 deg
Mean motion:   14.79977469 rev/day
Decay rate:       6.71e-06 rev/day^2
Epoch rev:           40347
Checksum:              325

Satellite: NOAA-15
Catalog number: 25338
Epoch time:      03058.87157838
Element set:      21
Inclination:       98.5489 deg
RA of node:        80.7690 deg
Eccentricity:    0.0009681
Arg of perigee:   293.1485 deg
Mean anomaly:      66.8673 deg
Mean motion:   14.24248439 rev/day
Decay rate:       1.15e-06 rev/day^2
Epoch rev:           24912
Checksum:              334

Satellite: RESURS
Catalog number: 25394
Epoch time:      03058.56026951
Element set:     458
Inclination:       98.6301 deg
RA of node:       136.3219 deg
Eccentricity:    0.0002432
Arg of perigee:    85.0042 deg
Mean anomaly:     275.1414 deg
Mean motion:   14.23880530 rev/day
Decay rate:        6.4e-07 rev/day^2
Epoch rev:           24081
Checksum:              265

Satellite: FENGYUN1
Catalog number: 25730
Epoch time:      03057.94541340
Element set:    0779
Inclination:      098.6341 deg
RA of node:       082.0307 deg
Eccentricity:    0.0014242
Arg of perigee:   342.6687 deg
Mean anomaly:     017.3997 deg
Mean motion:   14.11734988 rev/day
Decay rate:        9.0e-08 rev/day^2
Epoch rev:           19581
Checksum:              312

Satellite: OKEAN-0
Catalog number: 25860
Epoch time:      03057.92503401
Element set:    0101
Inclination:      097.8630 deg
RA of node:       105.1917 deg
Eccentricity:    0.0001867
Arg of perigee:   064.7671 deg
Mean anomaly:     295.3730 deg
Mean motion:   14.72617789 rev/day
Decay rate:       3.87e-06 rev/day^2
Epoch rev:           19416
Checksum:              302

Satellite: NOAA-16
Catalog number: 26536
Epoch time:      03058.86526750
Element set:     225
Inclination:       98.9027 deg
RA of node:         7.0806 deg
Eccentricity:    0.0009845
Arg of perigee:   283.5746 deg
Mean anomaly:      76.4316 deg
Mean motion:   14.11908009 rev/day
Decay rate:       -9.1e-07 rev/day^2
Epoch rev:           12546
Checksum:              310

Satellite: NOAA-17
Catalog number: 27453
Epoch time:      03058.91539101
Element set:     320
Inclination:       98.7541 deg
RA of node:       130.0769 deg
Eccentricity:    0.0011179
Arg of perigee:   333.7236 deg
Mean anomaly:      26.3371 deg
Mean motion:   14.23298197 rev/day
Decay rate:       1.64e-06 rev/day^2
Epoch rev:            3529
Checksum:              293



Read previous mail | Read next mail


 13.09.2026 13:16:48lGo back Go up